Content
SEND FEEDBACK

Daily
Averages
Monthly
Summary
United States of America

AGAT, GUAM


Home > North America > United States > Guam
Elevation: 364 feet     Latitude: 13 33N     Longitude: 144 50E

WEATHER
 
SELECT A DAY
Number of Records: 209,106;   Date Range: 1/1/95 - 8/12/14
 
SHARE

PRINT THIS DATA

[ ← Previous Day ]
WEATHER ALMANAC - MAY 8, 2013
[ Next Day → ]
[ °C ]   °F
Weather ElementAverageHighLow
Temperature85.2 °F89.1 °F (11:54 am)82 °F (2:54 am)
Dewpoint74.9 °F75.9 °F (1:54 am)72 °F (12:54 pm)
Humidity71.6 %82 % (2:54 am)59 % (12:54 pm)
Barometer29.83 in29.87 in (9:54 pm)29.79 in (2:54 pm)
Wind Speed7.3 mph13.8 mph (8:54 am)
Wind Gust17.3 mph (10:54 am)
Weather ElementAverage
Visibility10 mi
Wind DirectionE (91.3 °)

Weather ElementTotal
Precipitation---
Cooling Degree Days20.6 (Base 65)
Growing Degree Days35.6 (Base 50)
Averaged from 23 records on May 8, 2013
WEATHER CONDITIONS BREAKOUT
WIND DIRECTION BREAKOUT
WEATHER BY HOUR - MAY 8, 2013
[ °C ]   °F
Local TimeTemperatureDewpointHumidityBarometerVisibilityWind DirectionWind SpeedGust SpeedPrecipitationEventsConditions
1:54 AM82.9 °F75.9 °F79 %29.82 in10.0 miEast (90°)4.6 mphMostly Cloudy
2:54 AM82.0 °F75.9 °F82 %29.81 in10.0 miEast (100°)4.6 mphClear
3:54 AM82.0 °F75.9 °F82 %29.80 in10.0 miESE (110°)3.5 mphPartly Cloudy
4:54 AM82.0 °F75.9 °F82 %29.81 in10.0 miEast (100°)3.5 mphPartly Cloudy
5:54 AM82.9 °F75.9 °F79 %29.81 in10.0 miEast (100°)5.8 mphScattered Clouds
6:54 AM82.9 °F75.9 °F79 %29.82 in10.0 miESE (110°)5.8 mphPartly Cloudy
7:54 AM84.9 °F75.9 °F74 %29.84 in10.0 miEast (100°)9.2 mphScattered Clouds
8:54 AM86.0 °F73.9 °F67 %29.85 in10.0 miESE (110°)13.8 mphPartly Cloudy
9:54 AM87.1 °F75.0 °F67 %29.86 in10.0 miSE (130°)6.9 mphPartly Cloudy
10:54 AM87.1 °F73.9 °F65 %29.85 in10.0 miSE (130°)9.2 mph17.3 mphPartly Cloudy
11:54 AM89.1 °F75.0 °F63 %29.83 in10.0 miEast (100°)9.2 mphPartly Cloudy
12:54 PM88.0 °F72.0 °F59 %29.82 in10.0 miVariable6.9 mphPartly Cloudy
1:54 PM89.1 °F73.9 °F61 %29.80 in10.0 miESE (120°)8.1 mphClear
2:54 PM88.0 °F73.0 °F61 %29.79 in10.0 miESE (120°)9.2 mphPartly Cloudy
3:54 PM88.0 °F73.0 °F61 %29.79 in10.0 miESE (110°)9.2 mphPartly Cloudy
4:54 PM87.1 °F73.0 °F63 %29.79 in10.0 miEast (90°)10.4 mphClear
5:54 PM86.0 °F75.0 °F70 %29.80 in10.0 miEast (80°)10.4 mphClear
6:54 PM84.9 °F75.0 °F72 %29.83 in10.0 miEast (80°)5.8 mphClear
7:54 PM84.0 °F75.9 °F76 %29.85 in10.0 miNE (50°)5.8 mphClear
8:54 PM84.0 °F75.9 °F76 %29.86 in10.0 miENE (60°)5.8 mphClear
9:54 PM84.0 °F75.9 °F76 %29.87 in10.0 miEast (80°)6.9 mphPartly Cloudy
10:54 PM84.0 °F75.9 °F76 %29.87 in10.0 miENE (60°)5.8 mphClear
11:54 PM84.0 °F75.9 °F76 %29.86 in10.0 miENE (70°)6.9 mphPartly Cloudy
Hourly data recorded from PGUM, located miles away from Agat, Guam







STORIES FROM OUR PARTNERS